TimeCST,TemperatureF,Dew PointF,Humidity,Sea Level PressureIn,VisibilityMPH,Wind Direction,Wind SpeedMPH,Gust SpeedMPH,PrecipitationIn,Events,Conditions,WindDirDegrees,DateUTC
12:13 AM,-11.2,-20.2,64,30.02,10.0,Calm,Calm,-,N/A,,Overcast,0,2014-02-28 06:13:00
12:33 AM,-11.2,-20.2,64,30.02,10.0,Calm,Calm,-,N/A,,Overcast,0,2014-02-28 06:33:00
12:53 AM,-9.4,-20.2,59,30.02,10.0,ESE,3.5,-,N/A,,Overcast,110,2014-02-28 06:53:00
1:13 AM,-9.4,-20.2,59,30.01,10.0,ESE,5.8,-,N/A,,Overcast,110,2014-02-28 07:13:00
1:33 AM,-9.4,-20.2,59,30.00,10.0,ESE,4.6,-,N/A,,Overcast,110,2014-02-28 07:33:00
1:53 AM,-9.4,-18.4,65,29.99,10.0,ESE,5.8,-,N/A,,Overcast,110,2014-02-28 07:53:00
2:13 AM,32.0,-9999,N/A,29.98,10.0,East,5.8,-,N/A,,Overcast,100,2014-02-28 08:13:00
2:33 AM,-9999,-9999,N/A,29.98,10.0,East,3.5,-,N/A,,Overcast,100,2014-02-28 08:33:00
2:53 AM,-7.6,-18.4,59,29.97,10.0,East,4.6,-,N/A,,Overcast,90,2014-02-28 08:53:00
3:13 AM,-7.6,-18.4,59,29.96,10.0,ESE,4.6,-,N/A,,Mostly Cloudy,110,2014-02-28 09:13:00
3:33 AM,-7.6,-16.6,65,29.95,10.0,ESE,4.6,-,N/A,,Clear,110,2014-02-28 09:33:00
3:53 AM,-7.6,-16.6,65,29.94,7.0,ESE,5.8,-,N/A,,Clear,110,2014-02-28 09:53:00
4:13 AM,-9.4,-18.4,65,29.93,7.0,ESE,4.6,-,N/A,,Clear,110,2014-02-28 10:13:00
4:33 AM,-9.4,-16.6,71,29.92,10.0,ESE,5.8,-,N/A,,Clear,110,2014-02-28 10:33:00
4:53 AM,-9.4,-18.4,65,29.92,10.0,ESE,4.6,-,N/A,,Clear,110,2014-02-28 10:53:00
5:13 AM,-9.4,-18.4,65,29.91,10.0,East,4.6,-,N/A,,Clear,100,2014-02-28 11:13:00
5:33 AM,-9.4,-18.4,65,29.92,10.0,ESE,4.6,-,N/A,,Clear,110,2014-02-28 11:33:00
5:53 AM,-9.4,-18.4,65,29.92,10.0,East,3.5,-,N/A,,Clear,100,2014-02-28 11:53:00
6:13 AM,-9.4,-18.4,65,29.91,10.0,East,4.6,-,N/A,,Clear,90,2014-02-28 12:13:00
6:33 AM,-7.6,-18.4,59,29.91,10.0,East,4.6,-,N/A,,Mostly Cloudy,100,2014-02-28 12:33:00
6:53 AM,-7.6,-16.6,65,29.90,10.0,ESE,5.8,-,N/A,,Overcast,110,2014-02-28 12:53:00
7:14 AM,-5.8,-16.6,60,29.91,10.0,ESE,6.9,-,N/A,,Overcast,120,2014-02-28 13:14:00
7:33 AM,-5.8,-16.6,60,29.90,10.0,ESE,6.9,-,N/A,,Overcast,120,2014-02-28 13:33:00
7:53 AM,-5.8,-16.6,60,29.89,10.0,ESE,6.9,-,N/A,,Overcast,120,2014-02-28 13:53:00
8:14 AM,-5.8,-16.6,60,29.90,10.0,ESE,6.9,-,N/A,,Overcast,120,2014-02-28 14:14:00
8:33 AM,-4.0,-14.8,60,29.88,10.0,ESE,9.2,-,N/A,,Overcast,120,2014-02-28 14:33:00
8:53 AM,-2.2,-14.8,55,29.88,10.0,ESE,8.1,-,N/A,,Overcast,110,2014-02-28 14:53:00
9:13 AM,-2.2,-14.8,55,29.89,10.0,SE,9.2,-,N/A,,Overcast,140,2014-02-28 15:13:00
9:33 AM,-0.4,-13.0,55,29.89,10.0,ESE,5.8,-,N/A,,Overcast,120,2014-02-28 15:33:00
9:54 AM,1.4,-11.2,56,29.88,10.0,SE,6.9,-,N/A,,Mostly Cloudy,130,2014-02-28 15:54:00
10:13 AM,1.4,-9.4,61,29.87,10.0,SSE,10.4,-,N/A,,Scattered Clouds,150,2014-02-28 16:13:00
10:33 AM,3.2,-9.4,56,29.86,10.0,SE,10.4,-,N/A,,Clear,140,2014-02-28 16:33:00
10:54 AM,5.0,-7.6,56,29.87,10.0,SSE,5.8,-,N/A,,Clear,150,2014-02-28 16:54:00
11:13 AM,6.8,-7.6,52,29.87,10.0,SSE,4.6,-,N/A,,Clear,150,2014-02-28 17:13:00
11:33 AM,6.8,-7.6,52,29.87,10.0,SSE,6.9,-,N/A,,Clear,150,2014-02-28 17:33:00
11:54 AM,8.6,-5.8,52,29.86,10.0,SSE,9.2,-,N/A,,Clear,160,2014-02-28 17:54:00
12:13 PM,8.6,-5.8,52,29.86,10.0,South,8.1,-,N/A,,Clear,170,2014-02-28 18:13:00
12:33 PM,10.4,-4.0,52,29.87,10.0,South,8.1,-,N/A,,Clear,190,2014-02-28 18:33:00
12:54 PM,10.4,-2.2,57,29.86,10.0,South,10.4,-,N/A,,Clear,190,2014-02-28 18:54:00
1:13 PM,12.2,-2.2,53,29.86,10.0,SSW,10.4,-,N/A,,Clear,200,2014-02-28 19:13:00
1:33 PM,12.2,-0.4,57,29.87,10.0,SSW,10.4,-,N/A,,Clear,210,2014-02-28 19:33:00
1:54 PM,12.2,-0.4,57,29.86,10.0,SSW,8.1,-,N/A,,Mostly Cloudy,210,2014-02-28 19:54:00
2:13 PM,12.2,-0.4,57,29.86,10.0,SSW,5.8,-,N/A,,Overcast,210,2014-02-28 20:13:00
2:34 PM,12.2,-0.4,57,29.87,10.0,WSW,8.1,-,N/A,,Overcast,250,2014-02-28 20:34:00
2:53 PM,12.2,1.4,62,29.88,10.0,WSW,6.9,-,N/A,,Overcast,250,2014-02-28 20:53:00
3:13 PM,12.2,1.4,62,29.88,10.0,SW,6.9,-,N/A,,Overcast,230,2014-02-28 21:13:00
3:34 PM,12.2,1.4,62,29.89,10.0,West,9.2,-,N/A,,Overcast,260,2014-02-28 21:34:00
3:53 PM,12.2,1.4,62,29.90,10.0,West,9.2,-,N/A,,Overcast,270,2014-02-28 21:53:00
4:13 PM,12.2,1.4,62,29.91,10.0,West,6.9,-,N/A,,Overcast,270,2014-02-28 22:13:00
4:34 PM,12.2,1.4,62,29.92,10.0,West,6.9,-,N/A,,Overcast,280,2014-02-28 22:34:00
4:53 PM,12.2,3.2,67,29.93,10.0,WNW,8.1,-,N/A,,Overcast,300,2014-02-28 22:53:00
5:13 PM,12.2,3.2,67,29.94,10.0,WNW,9.2,-,N/A,,Overcast,290,2014-02-28 23:13:00
5:34 PM,10.4,1.4,67,29.95,10.0,WNW,6.9,-,N/A,,Mostly Cloudy,290,2014-02-28 23:34:00
5:53 PM,10.4,1.4,67,29.95,10.0,WNW,3.5,-,N/A,,Scattered Clouds,300,2014-02-28 23:53:00
6:13 PM,8.6,1.4,73,29.97,10.0,Calm,Calm,-,N/A,,Clear,0,2014-03-01 00:13:00
6:34 PM,8.6,1.4,73,29.98,10.0,Calm,Calm,-,N/A,,Clear,0,2014-03-01 00:34:00
6:53 PM,6.8,-0.4,72,29.99,10.0,Calm,Calm,-,N/A,,Clear,0,2014-03-01 00:53:00
7:13 PM,6.8,-0.4,72,30.00,10.0,Calm,Calm,-,N/A,,Clear,0,2014-03-01 01:13:00
7:34 PM,3.2,-2.2,78,30.01,10.0,Calm,Calm,-,N/A,,Clear,0,2014-03-01 01:34:00
7:53 PM,5.0,-0.4,78,30.01,10.0,Calm,Calm,-,N/A,,Scattered Clouds,0,2014-03-01 01:53:00
8:13 PM,3.2,-2.2,78,30.01,10.0,Calm,Calm,-,N/A,,Mostly Cloudy,0,2014-03-01 02:13:00
8:34 PM,8.6,1.4,73,30.02,10.0,WNW,12.7,-,N/A,,Overcast,290,2014-03-01 02:34:00
8:53 PM,8.6,-0.4,67,30.03,10.0,WNW,10.4,-,N/A,,Mostly Cloudy,290,2014-03-01 02:53:00
9:13 PM,8.6,-0.4,67,30.04,10.0,WNW,10.4,-,N/A,,Scattered Clouds,290,2014-03-01 03:13:00
9:33 PM,8.6,-2.2,62,30.06,10.0,Calm,Calm,-,N/A,,Clear,300,2014-03-01 03:33:00
9:53 PM,6.8,-2.2,67,30.08,10.0,WNW,11.5,17.3,N/A,,Clear,290,2014-03-01 03:53:00
10:13 PM,6.8,-2.2,67,30.10,10.0,WNW,11.5,-,N/A,,Clear,290,2014-03-01 04:13:00
10:33 PM,6.8,-2.2,67,30.11,10.0,WNW,11.5,17.3,N/A,,Clear,290,2014-03-01 04:33:00
10:53 PM,6.8,-4.0,61,30.13,10.0,WNW,10.4,-,N/A,,Clear,300,2014-03-01 04:53:00
11:13 PM,5.0,-4.0,66,30.14,10.0,WNW,13.8,-,N/A,,Clear,300,2014-03-01 05:13:00
11:33 PM,5.0,-5.8,61,30.15,10.0,WNW,11.5,-,N/A,,Clear,300,2014-03-01 05:33:00
11:53 PM,3.2,-5.8,66,30.16,10.0,WNW,10.4,-,N/A,,Clear,300,2014-03-01 05:53:00